Regional Weather Roundup
Issued by NWS Charleston, SC

Current Version | Previous Version | Graphics & Text | Print | Product List | Glossary On
Versions: 1 2 3 4 5 6 7 8 9 10 11 12 13 14 15 16 17 18 19 20 21 22 23 24 25 26 27 28 29 30 31 32 33 34 35 36 37 38 39 40 41 42 43 44 45 46 47 48 49 50
000
ASUS42 KCHS 012011
RWRCHS

REGIONAL WEATHER ROUNDUP
NATIONAL WEATHER SERVICE CHARLESTON SC
400 PM EDT WED APR 01 2015

NOTE: "FAIR" INDICATES FEW OR NO CLOUDS BELOW 12,000 FEET WITH NO
SIGNIFICANT WEATHER AND/OR OBSTRUCTIONS TO VISIBILITY.

NOT ALL STATIONS ARE QUALITY CONTROLLED BY THE NATIONAL
WEATHER SERVICE. USE DATA WITH CAUTION...ESPECIALLY
DEWPOINT OBSERVATIONS.

SCZ027-030-031-034>040-042>050-012100-
...SOUTHEAST SOUTH CAROLINA...

CITY           SKY/WX    TMP DP  RH WIND       PRES   REMARKS
N CHARLESTON   MOSUNNY   69  53  56 SE10      30.07S
WATERFRONT PRK   N/A     63 N/A N/A E17         N/A
MOUNT PLEASANT FAIR      64  54  68 CALM      30.08R
PINOPOLIS        N/A     72  54  53 E6        29.97F
MONCKS CORNER  FAIR      73  48  40 E7        30.05S
SUMMERVILLE    MOCLDY    73  57  56 NE7       30.05S
BEAUFORT MCAS  PTSUNNY   70  60  70 E16       30.04S
BEAUFORT ARPT  FAIR      70  61  73 E14       30.05R
HILTON HEAD IS MOSUNNY   70  57  64 E8        30.06S
WALTERBORO     MOCLDY    73  54  49 NE9       30.04S
ALLENDALE      MOCLDY    77  54  44 NE6       30.01F

...SOUTHERN MIDLANDS AND PEE DEE...

CITY           SKY/WX    TMP DP  RH WIND       PRES   REMARKS
GEORGETOWN     NOT AVBL
KINGSTREE      NOT AVBL
ORANGEBURG     SUNNY     75  44  33 E6        30.05S
BARNWELL       FAIR      79  55  44 N7        30.03S
AIKEN          FAIR      77  37  24 NE5       30.06S
MANNING        FAIR      72  36  26 NE3       30.06R
COLUMBIA       MOSUNNY   76  41  28 E8        30.04F
SUMTER         SUNNY     73  43  33 E6        30.04F
FLORENCE       SUNNY     72  41  32 N5        30.07F
MYRTLE BEACH   SUNNY     63  46  55 SE14      30.12S
N MYRTLE BEACH SUNNY     60  47  61 SE14      30.10S

$$

GAZ063-065-086>088-099>101-113>116-118-119-134>141-150-012100-
...SOUTHEAST GEORGIA...

CITY           SKY/WX    TMP DP  RH WIND       PRES   REMARKS
SAVANNAH ARPT  MOSUNNY   78  51  38 CALM      30.02F
HUNTER AAF     SUNNY     78  55  45 VRB1      30.00F
FORT STEWART   SUNNY     80  55  43 N8        30.00F
STATESBORO     MOSUNNY   79  60  51 SW6       30.03S
SYLVANIA       MOCLDY    78  59  52 S3        30.03S
CLAXTON        FAIR      79  57  47 N3        30.03S

...CSRA...CENTRAL AND FAR SOUTHEAST GEORGIA...

CITY           SKY/WX    TMP DP  RH WIND       PRES   REMARKS
THOMSON        MOSUNNY   83  53  35 CALM      30.05F
AUGUSTA-BUSH   MOSUNNY   81  49  32 NE8       30.00F
AUGUSTA-DANIEL MOSUNNY   81  48  31 CALM      30.02S
SWAINSBORO     FAIR      82  37  20 NW7       30.03S
VIDALIA        MOSUNNY   79  59  50 W3        30.03F
EASTMAN        FAIR      81  57  43 N7        30.05F
HAZLEHURST     FAIR      81  54  39 CALM      30.02F
ALMA           SUNNY     81  53  37 VRB5      30.03F
WAYCROSS       SUNNY     84  59  42 N7        30.02F
JESUP          FAIR      81  59  47 NW6       30.03F
BAXLEY         FAIR      81  55  41 CALM      30.02F
BRUNSWICK      PTSUNNY   81  55  41 NW7       30.03S
SAINT SIMONS   MOSUNNY   71  61  70 E10       30.04R

$$

SCZ027-028-034-036>038-045-046-048>050-GAZ119-141-012100-
...LAKE AND SUPPLEMENTAL COASTAL OBSERVATIONS...

STATION/POSITION TIME  TEMP    WIND        PRES    WAVE   SWELL
                       AIR SEA DIR/SP/G            HT/PER HT/PER/DIR
                 (UTC) (F)     (DEG/KT/KT) (MB)    (FT/S) (FT/S/D)
UPR LAKE MARION  NOT AVBL
WINYAH BAY       NOT AVBL
LAKE MURRAY      1900   75     160/  3/  3 1016.9F
ACE BASIN NERRS  NOT AVBL
FORT PULASKI     1900   71 62   80/  6/  7 1017.8F
SAPELO ISLAND    1900   79     360/  9     1017.0S

$$

ANZ835-935-AMZ111-154-330-350-352-354-370-450-454-472-012100-
...C-MAN AND BUOY OBSERVATIONS...

STATION/POSITION TIME  TEMP    WIND        PRES    WAVE   SWELL
                       AIR SEA DIR/SP/G            HT/PER HT/PER/DIR
                 (UTC) (F)     (DEG/KT/KT) (MB)    (FT/S) (FT/S/D)
BUOY 41004       1950   63 69   50/ 21/ 25 1017.1R   4/ 5   2/ 8
BUOY 41008       1950   64 63   80/  6/  8 1017.9F   1/ 4   2/170/ 4
FOLLY BEACH CMAN 2000   59      60/ 17/ 20 1018.8S
CAPERS NEARSHORE NOT AVBL
FRIPP NEARSHORE  1900   67     100/  6/  6 1017.9R


STATION/POSITION TIME  TEMP    WIND        PRES    WAVE   SWELL
                       AIR SEA DIR/SP/G            HT/PER HT/PER/DIR
                 (UTC) (F)     (DEG/KT/KT) (MB)    (FT/S) (FT/S/D)
5E ST. MARYS GA  1921      65                N/A     1/11
FRYING PAN BUOY  1950   58 63   70/ 19/ 23 1019.9R   6/ 7   2/ 90/11
BUOY 41025       NOT AVBL
CAPE LOOKOUT NC  2000   51      40/ 15/ 18 1020.3R
BUOY 41002       1950   68 69   10/ 19/ 23 1016.2F   6/ 8   3/260/ 8
BUOY 41010       1920   74 76  280/ 14/ 16 1018.1F
ST AUGUSTINE FL  2000   82 62  270/  6/ 12 1016.9F


$$



USA.gov is the U.S. government's official web portal to all federal, state and local government web resources and services.